Newark, NJ

12:19 AM EDT on March 29, 2017 (GMT -0400)
Newark International

Weather History for KEWR - September, 2014

Change the Weather History Date:

Tuesday, September 16, 2014

  Actual Average Record
Temperature  
Mean Temperature 65 °F 68 °F  
Max Temperature 72 °F 77 °F 95 °F (1991)
Min Temperature 58 °F 60 °F 42 °F (1984)
Degree Days  
Heating Degree Days 0 1  
Month to date heating degree days 5 7  
Since 1 July heating degree days 5 8  
Cooling Degree Days 0 4  
Month to date cooling degree days 136 101  
Year to date cooling degree days 1121 1135  
Growing Degree Days 14 (Base 50)    
Moisture  
Dew Point 55 °F    
Average Humidity 75    
Maximum Humidity 100    
Minimum Humidity 49    
Precipitation  
Precipitation 0.53 in 0.13 in 6.22 in (1999)
Month to date precipitation 1.11 1.90  
Year to date precipitation 35.73 33.27  
Snow  
Snow 0.00 in 0.00 in 0.00 in (2002)
Month to date snowfall 0.0 0.0  
Since 1 July snowfall 0.0 0.0  
Snow Depth 0.00 in    
Sea Level Pressure  
Sea Level Pressure 30.01 in    
Wind  
Wind Speed 5 mph (NNW)    
Max Wind Speed 13 mph    
Max Gust Speed 21 mph    
Visibility 8 miles    
Events Rain    
T = Trace of Precipitation, MM = Missing Value Source: NWS Daily Summary

Daily Weather History Graph

Daily Weather History Graph

Search for Another Location

Airport or City:

Trip Planner

Search our weather history database for the weather conditions in past years. The results will help you decide how hot, cold, wet, or windy it might be!

Date:

Astronomy

Sep. 16, 2014 Rise Set
Actual Time 6:38 AM EDT 7:04 PM EDT
Civil Twilight 6:10 AM EDT 7:31 PM EDT
Nautical Twilight 5:38 AM EDT 8:03 PM EDT
Astronomical Twilight 5:05 AM EDT 8:36 PM EDT
Moon No Moon Rise 2:26 PM EDT (9/16)
Length of Visible Light 13h 20m
Length of Day
12h 25m
Last Quarter, 44% of the Moon is Illuminated
Sep 16
Last Quarter
Sep 24
New
Oct 1
First Quarter
Oct 8
Full
Oct 15
Last Quarter

Hourly Weather History & Observations

Time (EDT) Temp. Dew Point Humidity Pressure Visibility Wind Dir Wind Speed Gust Speed Precip Events Conditions
12:51 AM 62.1 °F 53.1 °F 72% 30.07 in 10.0 mi South 4.6 mph - N/A   Overcast
1:51 AM 60.8 °F 53.6 °F 77% 30.06 in 10.0 mi SW 5.8 mph - N/A   Overcast
2:51 AM 60.1 °F 53.1 °F 78% 30.05 in 10.0 mi Calm Calm - N/A   Overcast
3:51 AM 60.1 °F 53.1 °F 78% 30.05 in 10.0 mi WSW 4.6 mph - N/A   Mostly Cloudy
4:51 AM 59.0 °F 53.6 °F 82% 30.02 in 10.0 mi Calm Calm - N/A   Mostly Cloudy
5:51 AM 60.1 °F 54.0 °F 80% 30.00 in 10.0 mi Calm Calm - N/A   Overcast
6:51 AM 62.1 °F 55.0 °F 78% 30.00 in 10.0 mi Calm Calm - N/A   Mostly Cloudy
7:51 AM 60.1 °F 55.9 °F 86% 30.01 in 4.0 mi West 5.8 mph - 0.05 in Rain Light Rain
8:13 AM 59.0 °F 57.2 °F 94% 30.02 in 2.5 mi Calm Calm - 0.02 in Rain Rain
8:27 AM 59.0 °F 57.2 °F 94% 30.03 in 1.5 mi NW 5.8 mph - 0.05 in Rain Heavy Rain
8:31 AM 59.0 °F 57.2 °F 94% 30.02 in 1.2 mi NNW 8.1 mph - 0.14 in Rain Heavy Rain
8:51 AM 59.0 °F 57.0 °F 93% 30.03 in 1.5 mi NNW 8.1 mph - 0.34 in Rain Rain
9:01 AM 59.0 °F 57.2 °F 94% 30.04 in 1.5 mi NW 8.1 mph - 0.03 in Rain Heavy Rain
9:17 AM 57.2 °F 57.2 °F 100% 30.03 in 4.0 mi NNE 9.2 mph - 0.11 in Rain Light Rain
9:33 AM 57.2 °F 57.2 °F 100% 30.01 in 5.0 mi NE 6.9 mph - 0.12 in Rain Light Rain
9:51 AM 57.9 °F 57.0 °F 97% 30.02 in 8.0 mi NNE 9.2 mph - 0.12 in Rain Light Rain
10:12 AM 59.0 °F 57.2 °F 94% 30.03 in 5.0 mi North 10.4 mph - 0.00 in Rain Light Rain
10:35 AM 59.0 °F 57.2 °F 94% 30.02 in 6.0 mi NNE 8.1 mph - 0.02 in Rain Light Rain
10:51 AM 59.0 °F 57.0 °F 93% 30.02 in 8.0 mi NNE 8.1 mph - 0.02 in Rain Light Rain
11:07 AM 59.0 °F 57.2 °F 94% 30.01 in 10.0 mi NE 8.1 mph - 0.00 in Rain Light Rain
11:51 AM 63.0 °F 57.9 °F 84% 30.01 in 10.0 mi NNE 5.8 mph - 0.00 in   Mostly Cloudy
12:14 PM 64.4 °F 59.0 °F 83% 30.00 in 10.0 mi NE 5.8 mph - N/A   Mostly Cloudy
12:51 PM 66.9 °F 57.9 °F 73% 29.99 in 10.0 mi NNE 5.8 mph - N/A   Mostly Cloudy
1:51 PM 69.1 °F 57.9 °F 68% 29.98 in 10.0 mi Calm Calm - N/A   Mostly Cloudy
2:51 PM 69.8 °F 57.2 °F 64% 29.97 in 10.0 mi Calm Calm - N/A   Mostly Cloudy
3:51 PM 71.1 °F 54.0 °F 55% 29.96 in 10.0 mi Variable 5.8 mph - N/A   Mostly Cloudy
4:51 PM 71.1 °F 52.0 °F 51% 29.97 in 10.0 mi NNW 8.1 mph - N/A   Overcast
5:51 PM 70.0 °F 51.1 °F 51% 29.97 in 10.0 mi NW 9.2 mph 18.4 mph N/A   Mostly Cloudy
6:51 PM 69.1 °F 51.1 °F 53% 29.98 in 10.0 mi NNW 9.2 mph - N/A   Scattered Clouds
7:51 PM 66.0 °F 50.0 °F 56% 29.99 in 10.0 mi North 6.9 mph - N/A   Scattered Clouds
8:51 PM 66.9 °F 51.1 °F 57% 30.01 in 10.0 mi NW 8.1 mph - N/A   Mostly Cloudy
9:51 PM 64.9 °F 51.1 °F 61% 30.01 in 10.0 mi NW 9.2 mph - N/A   Mostly Cloudy
11:51 PM 62.1 °F 50.0 °F 65% 30.03 in 10.0 mi NW 6.9 mph - N/A   Partly Cloudy